Regional Weather Roundup
Issued by NWS

Home | Current Version | Previous Version | Graphics & Text | Print | Product List | Glossary On
Versions: 1 2 3 4 5 6 7 8 9 10 11 12 13 14 15 16 17 18 19 20 21 22 23 24 25 26 27 28 29 30 31 32 33 34 35 36 37 38 39 40 41 42 43 44 45 46 47 48 49 50
619
ASUS44 KLIX 012310
RWRLA
LOUISIANA WEATHER ROUNDUP
NATIONAL WEATHER SERVICE NEW ORLEANS LA
500 PM CST SUN MAR 01 2015

NOTE: "FAIR" INDICATES FEW OR NO CLOUDS BELOW 12,000 FEET WITH NO
      SIGNIFICANT WEATHER AND/OR OBSTRUCTIONS TO VISIBILITY.
      SKY/WX - SKY CONDITION AND SIGNIFICANT WEATHER.
      TMP - AIR TEMPERATURE.    DP   - DEWPOINT TEMPERATURE.
      RH  - RELATIVE HUMIDITY.  PRES - PRESSURE.
      HX  - HEAT INDEX.         WCI  - WIND CHILL INDEX.

*  THESE STATIONS ARE NOT NWS OR FAA STATIONS AND ARE NOT UNDER
   NWS QUALITY CONTROL.

LAZ040-048-061>063-065-066-069-020000-
SOUTHEAST LOUISIANA

CITY           SKY/WX    TMP DP  RH WIND       PRES   REMARKS
N.O. AUDUBON     N/A     61  61  99 MISG        N/A
N.O. INTL ARPT CLOUDY    62  58  86 E8        30.25R FOG
N.O. LAKEFRONT FOG       59  55  87 E9        30.27R VSB 1
SLIDELL        CLOUDY    63  60  90 E5        30.26S
BATON ROUGE    PTSUNNY   65  61  87 NE6       30.22R
BOOTHVILLE     CLOUDY    69  66  90 E8        30.25S
BELLE CHASSE   FOG       62  59  90 NE7       30.25R VSB 1/2
BOGALUSA*        N/A     65  59  82 E5        30.29R HAZE
GALLIANO*      CLOUDY    71  66  85 E3        30.24R
NEW ROADS*     CLOUDY    65  61  87 E7        30.22R
GONZALES*      CLOUDY    63  62  98 E3        30.23R
HAMMOND*       CLOUDY    64  61  88 SE9       30.27R FOG
HOUMA*         MOSUNNY   73  68  83 E13       30.22S
PORT FOURCHON* CLEAR     68  66  94 E9G15     30.26S FOG

$$

LAZ041-044-053-054-020000-
SOUTHWEST LOUISIANA

CITY           SKY/WX    TMP DP  RH WIND       PRES   REMARKS
LAKE CHARLES   FOG       63  63 100 SW3       30.18S VSB 1/2
LAFAYETTE      CLOUDY    74  67  78 S14G22    30.18S
PATTERSON      CLOUDY    73  66  78 SE9       30.22R
SALT POINT       N/A     71  67  87 SE9       30.19R
NEW IBERIA     CLOUDY    73  68  84 S15       30.20R
CHENAULT AIRPK CLOUDY    66  66 100 SW8       30.19

$$

LAZ027-028-020000-
CENTRAL LOUISIANA

CITY           SKY/WX    TMP DP  RH WIND       PRES   REMARKS
FORT POLK      CLOUDY    57  57 100 VRB3      30.21S
ALEXANDRIA INT LGT RAIN  56  56 100 NW8       30.22R FOG
ALEXANDRIA     HVY RAIN  62  59  90 N3        30.23R

$$

LAZ001-002-020000-
NORTHWEST LOUISIANA

CITY           SKY/WX    TMP DP  RH WIND       PRES   REMARKS
SHREVEPORT     LGT RAIN  43  43 100 N7        30.27F FOG
BARKSDALE AFB  MIX PCPN  41  41 100 N6        30.28S
DTN SHREVEPORT CLOUDY    42  39  89 N5        30.28S FOG

$$

LAZ014-016-020000-
NORTHEAST LOUISIANA

CITY           SKY/WX    TMP DP  RH WIND       PRES   REMARKS
MONROE         LGT RAIN  44  44 100 N9        30.28S FOG
TALLULAH       CLOUDY    58  56  93 E5        30.24F FOG

$$




USA.gov is the U.S. government's official web portal to all federal, state and local government web resources and services.